Regional Weather Roundup
Issued by NWS Memphis, TN

Home | Current Version | Previous Version | Text Only | Print | Product List | Glossary On
Versions: 1 2 3 4 5 6 7 8 9 10 11 12 13 14 15 16 17 18 19 20 21 22 23 24 25 26 27 28 29 30 31 32 33 34 35 36 37 38 39 40 41 42 43 44 45 46 47 48 49 50
000
ASUS44 KMEG 260900
RWRMEG
MEMPHIS CWA HOURLY WEATHER ROUNDUP
NATIONAL WEATHER SERVICE MEMPHIS TN
400 AM CDT TUE MAY 26 2015

...WEST TENNESSEE...

CITY           SKY/WX    TMP DP  RH WIND       PRES   REMARKS
MEMPHIS INTL   CLOUDY    71  68  90 SE12      29.93F FOG
NWS MEMPHIS      N/A     71 N/A N/A MISG        N/A
JACKSON        CLOUDY    71  65  81 S9G20     29.99F
LEXINGTON      PTCLDY    66  64  94 VRB5      30.02S
DYERSBURG      CLOUDY    72  55  56 SE6       29.98R
PARIS          CLEAR     66  66 100 SE7       30.01S


...EASTERN ARKANSAS...

CITY           SKY/WX    TMP DP  RH WIND       PRES   REMARKS
JONESBORO      CLOUDY    66  65  96 E8        29.86F
WEST MEMPHIS   LGT RAIN  67  67 100 SE8       29.89F
BATESVILLE     CLOUDY    64  63  94 W15       29.89R
WALNUT RIDGE   CLOUDY    66  63  88 E13       29.82F
BLYTHEVILLE    CLOUDY    73  69  87 S12       29.93F
SEARCY         LGT RAIN  64  62  93 SW7       29.95R
STUTTGART      CLOUDY    64  61  88 SE16G24   29.88F
PINE BLUFF     LGT RAIN  62  61  96 S9        29.92F
MONTICELLO     LGT RAIN  62  62 100 S12       29.97R


...NORTH MISSISSIPPI...

CITY           SKY/WX    TMP DP  RH WIND       PRES   REMARKS
TUPELO         MOCLDY    70  65  84 S12       30.01F
TUNICA         CLOUDY    64  63  94 SE8       29.93F
GREENWOOD      LGT RAIN  64  61  90 S8        30.02F
STARKVILLE     CLOUDY    68  66  94 SE9       30.04S
GOLDEN TRIANGL CLOUDY    70  64  83 S13       30.04S


...SOUTHEAST MISSOURI...

CITY           SKY/WX    TMP DP  RH WIND       PRES   REMARKS
WEST PLAINS    CLOUDY    63  60  90 SW5       29.86R
POPLAR BLUFF   LGT RAIN  68  65  90 S6        29.88F
CAPE GIRARDEAU CLOUDY    71  68  90 SE14      29.93F


...NORTHWEST ALABAMA...

CITY           SKY/WX    TMP DP  RH WIND       PRES   REMARKS
MUSCLE SHOALS  PTCLDY    66  63  90 SE6       30.08S


...MIDDLE TENNESSEE...

CITY           SKY/WX    TMP DP  RH WIND       PRES   REMARKS
NASHVILLE      MOCLDY    66  64  93 S7        30.09S
CLARKSVILLE    PTCLDY    66  65  96 SE12      30.04F
COLUMBIA       PTCLDY    66  64  94 S5        30.07S


...WESTERN KENTUCKY...

CITY           SKY/WX    TMP DP  RH WIND       PRES   REMARKS
PADUCAH        CLOUDY    71  66  84 S10       29.97F
FORT CAMPBELL  PTCLDY    67  65  93 SE10      30.03F


...CENTRAL ARKANSAS...

CITY           SKY/WX    TMP DP  RH WIND       PRES   REMARKS
LITTLE ROCK    CLOUDY    63  59  87 VRB7      29.92F


SKY/WX REPORTED AS FAIR MEANS FEW OR NO CLOUDS BELOW
12 THOUSAND FEET.



USA.gov is the U.S. government's official web portal to all federal, state and local government web resources and services.